Find Aether-9

NORAD ID: 67380 Int'l Des: 2026-004 Owner: KEPLER Country: CA Constellation: kepler-communications-gen2 operational
LEOCIRCULARRETROGRADESSO

当前视图

正在加载3D地球...

关于 Aether-9

正在加载描述...

即将过境

Passes for default location (London). Set your location on the main map for personalized predictions.

高度历史

Loading altitude history...

两行轨道根数

1 67380U 26004T 26149.61938808 .00000822 00000-0 10014-3 0 9992
2 67380 97.8000 148.4941 0000143 185.0549 175.0665 14.85984473 20523
Epoch: May 29, 2026 • Age: 24 hours

当前状态

高度 630.7 km
速度 7.54 km/s
星下点 -52.21°S, 146.79°W
发射日期 Jan 11, 2026
运行时间 0.3 years
类型 other

技术详情

分类 Payload
质量 300.00 kg
干质量 300.00 kg
总质量 300.00 kg
长度 1.00 m
直径 1.50 m
跨度 6.00 m
形状 Box+2 pan
制造商 KEPLER
平台类型 Kepler Gen2B
阶段状态 In Orbit
所有者/国家 KEPLER/CA

Most Searched